Terminal Aerodrome Forecast
Issued by NWS

Home | Current Version | Previous Version | Text Only | Print | Product List | Glossary On
Versions: 1 2 3 4 5 6 7 8 9 10 11 12 13 14 15 16
000
FTUS41 KGYX 302320
TAFHIE
TAF
KHIE 302320Z 0100/0124 34005KT P6SM BKN035
     FM010600 08002KT 5SM BR OVC015
     FM011400 VRB03KT P6SM BKN035=

USA.gov is the U.S. government's official web portal to all federal, state and local government web resources and services.